Showing default

CONNECTA IOT-7, 62715

Orbit data source: Space-Track

CONNECTA IOT-7, 62715 is a payload satellite owned by Plan-S (TR) in SSO that was launched on Tue, 14 Jan 2025 UTC via an FALCON 9 launch vehicle from the Air Force Western Test Range (AFWTR). Payload-class satellites include a variety of spacecraft equipped with specific instruments for various scientific and technological missions. These include communications satellites like Starlink; space stations such as the ISS; scientific satellites like the Hubble; Earth observation satellites from companies like Planet Labs, Umbra, and HawkEye 360; GPS; miniature CubeSats for education and research; and military/defense satellites.

Loading next visibility...
Identifier
62715, 2025-009DL
Orbit
SSO
Country
Flag of TRTR / TURK
Related business
Manufacturer
Plan-S
Mission
Operational Commercial Communications
Bus & Motor
CUBESAT 6U, Unknown motor
Mass
10 kg wet, 10 kg dry
Launch date (UTC)
2025-01-14 (1 year ago)
Launch vehicle
FALCON 9
Launch site
Air Force Western Test Range (AFWTR)
Object type
Payload
Rocket body
Debris
Shape & HBR
Box, 2.2 m
Radar Cross Section
0.080 m², Medium (>0.1 m² and < 1m²)

Expand to show TLE details & history
Last TLE update: 7 hours ago

TLE from 7 hours ago
0 CONNECTA IOT-7
1 62715U 25009DL  26125.71132772  .00001240  00000-0  12131-3 0  9991
2 62715  97.7081 205.2547 0001494  41.6327 318.5006 14.94099101 71000
Epoch: 2026-05-05T17:04Z
TLE epoch observation values (Epoch: 2026-05-05T17:04:18.715Z)
Latitude
-0.00006°
Longitude
85.59448°
Altitude
587.438 km
Speed
7.567 km/s
True Right ascension
13h 41m 01s
True Declination
0° 00' 00"
Sunlit
Object was in full shadow at epoch
Visualization orbit readout
Latitude
Unknown
Longitude
Unknown
Altitude
Unknown
Speed
Unknown
Apparent Right ascension
Unknown
Apparent Declination
Unknown
Sunlit
N/A
Visualization observer readout
Local Sidereal Time
08:06:51
Azimuth
Unknown
Elevation
Unknown
Doppler factor
Unknown
Orbital elements
Apogee altitude
583.224 km
Perigee altitude
581.144 km
Semi-major axis
6,960.321 km
Eccentricity
0.00015
Inclination
97.7081°
RAAN
205.2547°
Arg. of periapsis
41.6327°
True anomaly
318.48925°
Mean anomaly
318.5006°
Eccentric anomaly
318.49493°
Mean motion
3.73766 °/min
Orbital period
96.32 mins
BSTAR
0.00012131
Loading maneuver chart data...
Computing Atmospheric mass density...
Loading historical data...
Loading historical data...
Loading historical data...
Loading historical data...
Loading historical data...
Loading historical data...
Loading historical data...

Documentation

Showing up to 5 results
|